3rd November 2019 | Noosa, QLD, Australia

Noosa Triathlon (2019)

Relay Teams: Male

Pos Name Gun Time Category (Pos) Gender (Pos) Swim T1 Cycle T2 Run
1 TEAM HILLY NINO AND DAN (#8648) 01:49:52 Open (1) Male  (1) 00:13:42 00:05:57 00:52:11 00:01:57 00:36:04
3 TEAM M5 MANAGEMENT (#8952) 01:51:13 Open (2) Male  (2) 00:12:01 00:05:19 00:55:04 00:01:58 00:36:49
4 TEAM A GUN TRAM (#8030) 01:52:52 Open (3) Male  (3) 00:12:37 00:04:30 00:55:16 00:02:06 00:38:22
5 TEAM BPM (#8110) 01:54:19 Open (4) Male  (4) 00:13:00 00:04:58 00:59:27 00:02:12 00:34:40
7 TEAM ATLAS MULTISPORTS (#8905) 01:57:53 Masters (1) Male  (5) 00:15:43 00:04:48 00:57:59 00:01:54 00:37:27
8 TEAM WYNNUM ELITE (#8883) 01:58:31 Open (5) Male  (6) 00:16:36 00:05:12 01:00:32 00:01:52 00:34:18
9 TEAM SUPER FIRE BREATHING RUBBER DUCKIES (#8981) 01:58:44 Open (6) Male  (7) 00:15:08 00:04:34 00:58:22 00:02:00 00:38:39
11 TEAM TOMMY AND THE PUMPS (#8786) 01:59:44 Open (7) Male  (8) 00:14:44 00:04:58 01:02:14 00:01:51 00:35:55
12 TEAM HANNANT (#8329) 01:59:58 Open (8) Male  (9) 00:18:44 00:05:41 00:57:34 00:02:15 00:35:43
13 TEAM MANLY ALLSTARS (#8433) 02:01:07 Open (9) Male  (10) 00:14:40 00:05:04 01:01:25 00:01:55 00:38:01
15 TEAM MENOFHARLECH (#8441) 02:04:18 Open (10) Male  (11) 00:18:33 00:05:24 00:57:54 00:02:06 00:40:19
18 TEAM CLOUGH (#8987) 02:06:12 Open (11) Male  (12) 00:15:30 00:05:07 01:02:41 00:02:04 00:40:48
19 TEAM MID-LIFE-CRISIS #6 (#8443) 02:06:32 Masters (2) Male  (13) 00:16:38 00:04:35 01:03:44 00:02:25 00:39:08
23 TEAM THE WEAPONS (#8772) 02:07:22 Open (12) Male  (14) 00:18:00 00:05:50 01:02:04 00:02:04 00:39:22
25 TEAM BAREFOOT (#8627) 02:07:29 Masters (3) Male  (15) 00:14:59 00:05:10 01:03:20 00:02:19 00:41:38
27 TEAM CONFUSION (#8184) 02:08:27 Masters (4) Male  (16) 00:16:29 00:05:36 01:00:54 00:02:09 00:43:18
29 TEAM MOOLOOLABA CREW (#8958) 02:08:40 Masters (5) Male  (17) 00:16:04 00:05:59 01:03:02 00:02:16 00:41:18
32 TEAM MANLY MEN (#8954) 02:09:17 Masters (6) Male  (18) 00:16:54 00:06:08 01:01:01 00:01:58 00:43:15
34 Team Tafmtg (#8983) 02:10:24 Open (13) Male  (19) 00:17:05 00:08:46 01:02:45 00:02:33 00:39:13
37 TEAM DARK HORSES (#8209) 02:11:10 Open (14) Male  (20) 00:18:25 00:05:45 01:02:03 00:02:13 00:42:43
40 Team MIKE NOLAN (#8663) 02:12:30 Open (15) Male  (21) 00:18:34 00:05:08 01:03:04 00:02:18 00:43:25
44 Team Yamba Plus Max (#8694) 02:13:05 Open (16) Male  (22) 00:15:35 00:04:38 01:03:47 00:01:59 00:47:04
48 TEAM QUICKZORBJETS (#8527) 02:14:00 Open (17) Male  (23) 00:13:46 00:06:44 01:08:47 00:02:22 00:42:19
49 TEAM LYCRA CHASERS 2 (#8426) 02:14:18 Masters (7) Male  (24) 00:18:14 00:05:18 01:03:27 00:02:19 00:44:59
51 TEAM YOUR PACE OR MINE (#8891) 02:14:22 Open (18) Male  (25) 00:17:54 00:05:44 01:01:15 00:02:15 00:47:13
52 TEAM BFTC (#8089) 02:14:25 Open (19) Male  (26) 00:16:46 00:05:56 01:04:36 00:01:57 00:45:07
55 TEAM ALOHA GENTS (#8056) 02:15:11 Open (20) Male  (27) 00:19:14 00:07:15 01:05:30 00:02:28 00:40:43
65 TEAM KILLER WHAT? (#8389) 02:17:35 Open (21) Male  (28) 00:20:56 00:06:29 01:09:31 00:02:08 00:38:30
66 TEAM 50 PLUS (#8026) 02:17:37 Masters (8) Male  (29) 00:16:35 00:05:53 01:06:47 00:02:17 00:46:03
67 TEAM THE TRI-SEXUALS (#8771) 02:17:40 Open (22) Male  (30) 00:21:18 00:05:43 01:05:57 00:01:57 00:42:43
68 TEAM BODYFIT (#8103) 02:17:47 Open (23) Male  (31) 00:16:47 00:05:32 01:05:21 00:02:17 00:47:48
71 TEAM DONT RUIN IT (#8228) 02:18:12 Open (24) Male  (32) 00:17:17 00:05:33 01:09:03 00:02:09 00:44:08
77 TEAM ALPHA TOWER LADS (#8057) 02:19:21 Open (25) Male  (33) 00:19:41 00:06:15 01:06:20 00:02:02 00:45:02
79 TEAM 4 STEVE (#8897) 02:19:31 Open (26) Male  (34) 00:14:44 00:05:07 01:07:16 00:02:23 00:49:59
83 TEAM ACG (#8043) 02:20:19 Open (27) Male  (35) 00:21:16 00:07:05 01:06:12 00:02:05 00:43:38
84 TEAM WOOD RACING (#8878) 02:20:22 Open (28) Male  (36) 00:16:00 00:06:05 01:07:03 00:02:42 00:48:31
86 TEAM YAMBA HOUND DOGS (#8884) 02:20:31 Open (29) Male  (37) 00:23:22 00:06:17 01:02:31 00:02:26 00:45:52
87 TEAM CHAFING THE DREAM (#8129) 02:20:42 Open (30) Male  (38) 00:21:21 00:06:34 01:09:42 00:02:22 00:40:41
91 TEAM LIKELY LADS (#8411) 02:20:52 Masters (9) Male  (39) 00:20:55 00:08:10 01:00:59 00:02:11 00:48:35
92 TEAM BARRACUDA'S (#8076) 02:20:53 Open (31) Male  (40) 00:18:37 00:05:29 01:02:42 00:02:33 00:51:31
95 TEAM SIT DOWN FAT LADY (#8588) 02:21:12 Masters (10) Male  (41) 00:20:22 00:06:01 01:00:19 00:02:13 00:52:14
101 TEAM LOST IT (#8950) 02:21:57 Open (32) Male  (42) 00:17:33 00:05:49 01:12:24 00:02:03 00:44:05
102 TEAM MSM TRI-NATIONS (#8455) 02:21:57 Masters (11) Male  (43) 00:17:40 00:05:13 01:14:33 00:02:14 00:42:16
103 Team Nudgee Trinity (#8482) 02:21:58 Open (33) Male  (44) 00:20:07 00:06:22 01:17:51 00:02:34 00:35:03
106 TEAM SEMI-FIT AMATEURS (#8579) 02:22:13 Open (34) Male  (45) 00:17:16 00:06:33 01:07:22 00:02:10 00:48:51
113 TEAM KOSTKA CRUSADERS (#8395) 02:23:23 Open (35) Male  (46) 00:16:19 00:05:21 01:17:48 00:02:25 00:41:29
114 Team Suppers (#8613) 02:23:51 Open (36) Male  (47) 00:19:51 00:06:01 01:14:14 00:02:32 00:41:11
115 TEAM VISION PT (#9020) 02:23:53 Open (37) Male  (48) 00:19:50 00:04:55 01:09:31 00:02:55 00:46:40
119 TEAM RUN LIKE THE WINDED (#8563) 02:24:13 Open (38) Male  (49) 00:17:40 00:06:25 01:13:27 00:02:28 00:44:11
123 TEAM COW AND CALVES (#8195) 02:24:25 Open (39) Male  (50) 00:18:37 00:06:02 01:06:58 00:02:38 00:50:08